Wetterdaten: Sonntag, 07.02.2010
Datum Zeit Temp. A. Feuchte A. Luftdruck Regen Wind Richtung Richtung Sonnenschein UV Solar Windben
07.02.2010 00:00 1,8 C 92 % 1018,2 hPa 0,0 mm 0,0 km/h (0 Bft) O-SO 112 0 min 0 UV-I 0 W/m 3,2 km/h (1 Bft)
07.02.2010 00:10 1,8 C 92 % 1018,3 hPa 0,0 mm 1,6 km/h (1 Bft) O 90 0 min 0 UV-I 0 W/m 4,8 km/h (1 Bft)
07.02.2010 00:20 1,8 C 92 % 1018,5 hPa 0,0 mm 0,0 km/h (0 Bft) O 90 0 min 0 UV-I 0 W/m 3,2 km/h (1 Bft)
07.02.2010 00:30 1,9 C 92 % 1018,5 hPa 0,0 mm 0,0 km/h (0 Bft) O 90 0 min 0 UV-I 0 W/m 3,2 km/h (1 Bft)
07.02.2010 00:40 1,9 C 92 % 1018,6 hPa 0,0 mm 1,6 km/h (1 Bft) O 90 0 min 0 UV-I 0 W/m 3,2 km/h (1 Bft)
07.02.2010 00:50 1,9 C 92 % 1018,7 hPa 0,0 mm 1,6 km/h (1 Bft) O 90 0 min 0 UV-I 0 W/m 4,8 km/h (1 Bft)
07.02.2010 01:00 1,9 C 92 % 1018,7 hPa 0,0 mm 1,6 km/h (1 Bft) O 90 0 min 0 UV-I 0 W/m 4,8 km/h (1 Bft)
07.02.2010 01:10 1,9 C 92 % 1018,7 hPa 0,0 mm 1,6 km/h (1 Bft) O 90 0 min 0 UV-I 0 W/m 4,8 km/h (1 Bft)
07.02.2010 01:20 1,9 C 92 % 1018,7 hPa 0,0 mm 1,6 km/h (1 Bft) O 90 0 min 0 UV-I 0 W/m 6,4 km/h (2 Bft)
07.02.2010 01:30 1,9 C 92 % 1018,8 hPa 0,0 mm 1,6 km/h (1 Bft) O 90 0 min 0 UV-I 0 W/m 4,8 km/h (1 Bft)
07.02.2010 01:40 1,9 C 92 % 1018,8 hPa 0,0 mm 1,6 km/h (1 Bft) O-SO 112 0 min 0 UV-I 0 W/m 4,8 km/h (1 Bft)
07.02.2010 01:50 1,9 C 92 % 1018,8 hPa 0,0 mm 1,6 km/h (1 Bft) O-SO 112 0 min 0 UV-I 0 W/m 4,8 km/h (1 Bft)
07.02.2010 02:00 1,9 C 93 % 1018,9 hPa 0,0 mm 1,6 km/h (1 Bft) O-SO 112 0 min 0 UV-I 0 W/m 6,4 km/h (2 Bft)
07.02.2010 02:10 1,9 C 93 % 1019,0 hPa 0,0 mm 3,2 km/h (1 Bft) O-SO 112 0 min 0 UV-I 0 W/m 6,4 km/h (2 Bft)
07.02.2010 02:20 1,9 C 93 % 1019,1 hPa 0,0 mm 1,6 km/h (1 Bft) O-SO 112 0 min 0 UV-I 0 W/m 6,4 km/h (2 Bft)
07.02.2010 02:30 1,9 C 93 % 1019,1 hPa 0,0 mm 1,6 km/h (1 Bft) O 90 0 min 0 UV-I 0 W/m 6,4 km/h (2 Bft)
07.02.2010 02:40 1,9 C 93 % 1019,1 hPa 0,0 mm 1,6 km/h (1 Bft) O 90 0 min 0 UV-I 0 W/m 6,4 km/h (2 Bft)
07.02.2010 02:50 1,9 C 93 % 1019,2 hPa 0,0 mm 1,6 km/h (1 Bft) O 90 0 min 0 UV-I 0 W/m 3,2 km/h (1 Bft)
07.02.2010 03:00 1,9 C 93 % 1019,2 hPa 0,0 mm 1,6 km/h (1 Bft) O 90 0 min 0 UV-I 0 W/m 3,2 km/h (1 Bft)
07.02.2010 03:10 1,9 C 93 % 1019,1 hPa 0,0 mm 1,6 km/h (1 Bft) O 90 0 min 0 UV-I 0 W/m 6,4 km/h (2 Bft)
07.02.2010 03:20 1,9 C 93 % 1019,2 hPa 0,0 mm 3,2 km/h (1 Bft) O-SO 112 0 min 0 UV-I 0 W/m 6,4 km/h (2 Bft)
07.02.2010 03:30 1,9 C 92 % 1019,2 hPa 0,0 mm 1,6 km/h (1 Bft) O-SO 112 0 min 0 UV-I 0 W/m 3,2 km/h (1 Bft)
07.02.2010 03:40 1,8 C 92 % 1019,1 hPa 0,0 mm 0,0 km/h (0 Bft) O-SO 112 0 min 0 UV-I 0 W/m 3,2 km/h (1 Bft)
07.02.2010 03:50 1,8 C 92 % 1019,2 hPa 0,0 mm 1,6 km/h (1 Bft) O-SO 112 0 min 0 UV-I 0 W/m 4,8 km/h (1 Bft)
07.02.2010 04:00 1,7 C 92 % 1019,2 hPa 0,0 mm 1,6 km/h (1 Bft) O-SO 112 0 min 0 UV-I 0 W/m 4,8 km/h (1 Bft)
07.02.2010 04:10 1,6 C 92 % 1019,2 hPa 0,0 mm 0,0 km/h (0 Bft) O-SO 112 0 min 0 UV-I 0 W/m 3,2 km/h (1 Bft)
07.02.2010 04:20 1,4 C 92 % 1019,3 hPa 0,0 mm 0,0 km/h (0 Bft) O-SO 112 0 min 0 UV-I 0 W/m 3,2 km/h (1 Bft)
07.02.2010 04:30 1,3 C 92 % 1019,3 hPa 0,0 mm 0,0 km/h (0 Bft) O-SO 112 0 min 0 UV-I 0 W/m 1,6 km/h (1 Bft)
07.02.2010 04:40 1,3 C 92 % 1019,3 hPa 0,0 mm 0,0 km/h (0 Bft) N 0 0 min 0 UV-I 0 W/m 0,0 km/h (0 Bft)
07.02.2010 04:50 1,3 C 92 % 1019,5 hPa 0,0 mm 0,0 km/h (0 Bft) N 0 0 min 0 UV-I 0 W/m 0,0 km/h (0 Bft)
07.02.2010 05:00 1,1 C 92 % 1019,7 hPa 0,0 mm 0,0 km/h (0 Bft) N 0 0 min 0 UV-I 0 W/m 0,0 km/h (0 Bft)
07.02.2010 05:10 1,0 C 92 % 1019,8 hPa 0,0 mm 0,0 km/h (0 Bft) O-SO 112 0 min 0 UV-I 0 W/m 1,6 km/h (1 Bft)
07.02.2010 05:20 0,8 C 92 % 1019,9 hPa 0,0 mm 0,0 km/h (0 Bft) N 0 0 min 0 UV-I 0 W/m 0,0 km/h (0 Bft)
07.02.2010 05:30 0,7 C 92 % 1019,9 hPa 0,0 mm 0,0 km/h (0 Bft) O-SO 112 0 min 0 UV-I 0 W/m 1,6 km/h (1 Bft)
07.02.2010 05:40 0,6 C 92 % 1020,0 hPa 0,0 mm 0,0 km/h (0 Bft) O-SO 112 0 min 0 UV-I 0 W/m 1,6 km/h (1 Bft)
07.02.2010 05:50 0,4 C 92 % 1020,1 hPa 0,0 mm 0,0 km/h (0 Bft) O-SO 112 0 min 0 UV-I 0 W/m 3,2 km/h (1 Bft)
07.02.2010 06:00 0,3 C 92 % 1020,1 hPa 0,0 mm 0,0 km/h (0 Bft) O-SO 112 0 min 0 UV-I 0 W/m 3,2 km/h (1 Bft)
07.02.2010 06:10 0,3 C 92 % 1020,1 hPa 0,0 mm 0,0 km/h (0 Bft) O-SO 112 0 min 0 UV-I 0 W/m 1,6 km/h (1 Bft)
07.02.2010 06:20 0,3 C 92 % 1020,1 hPa 0,0 mm 0,0 km/h (0 Bft) O-SO 112 0 min 0 UV-I 0 W/m 1,6 km/h (1 Bft)
07.02.2010 06:30 0,3 C 92 % 1020,1 hPa 0,0 mm 0,0 km/h (0 Bft) O-SO 112 0 min 0 UV-I 0 W/m 1,6 km/h (1 Bft)
07.02.2010 06:40 0,3 C 92 % 1020,2 hPa 0,0 mm 0,0 km/h (0 Bft) N 0 0 min 0 UV-I 0 W/m 0,0 km/h (0 Bft)
07.02.2010 06:50 0,3 C 92 % 1020,2 hPa 0,0 mm 0,0 km/h (0 Bft) N 0 0 min 0 UV-I 0 W/m 0,0 km/h (0 Bft)
07.02.2010 07:00 0,3 C 92 % 1020,3 hPa 0,0 mm 0,0 km/h (0 Bft) O-SO 112 0 min 0 UV-I 0 W/m 3,2 km/h (1 Bft)
07.02.2010 07:10 0,4 C 92 % 1020,3 hPa 0,0 mm 0,0 km/h (0 Bft) O-SO 112 0 min 0 UV-I 0 W/m 3,2 km/h (1 Bft)
07.02.2010 07:20 0,4 C 92 % 1020,3 hPa 0,0 mm 0,0 km/h (0 Bft) O-SO 112 0 min 0 UV-I 0 W/m 3,2 km/h (1 Bft)
07.02.2010 07:30 0,4 C 92 % 1020,4 hPa 0,0 mm 0,0 km/h (0 Bft) O-SO 112 0 min 0 UV-I 0 W/m 1,6 km/h (1 Bft)
07.02.2010 07:40 0,4 C 92 % 1020,4 hPa 0,0 mm 0,0 km/h (0 Bft) O-SO 112 0 min 0 UV-I 0 W/m 3,2 km/h (1 Bft)
07.02.2010 07:50 0,5 C 92 % 1020,6 hPa 0,0 mm 0,0 km/h (0 Bft) O 90 0 min 0 UV-I 0 W/m 4,8 km/h (1 Bft)
07.02.2010 08:00 0,5 C 92 % 1020,6 hPa 0,0 mm 0,0 km/h (0 Bft) O 90 0 min 0 UV-I 0 W/m 3,2 km/h (1 Bft)
07.02.2010 08:10 0,5 C 92 % 1020,6 hPa 0,0 mm 0,0 km/h (0 Bft) O 90 0 min 0 UV-I 5 W/m 3,2 km/h (1 Bft)
07.02.2010 08:20 0,4 C 92 % 1020,7 hPa 0,0 mm 0,0 km/h (0 Bft) O 90 0 min 0 UV-I 9 W/m 3,2 km/h (1 Bft)
07.02.2010 08:30 0,4 C 92 % 1020,7 hPa 0,0 mm 0,0 km/h (0 Bft) O 90 0 min 0 UV-I 16 W/m 1,6 km/h (1 Bft)
07.02.2010 08:40 0,4 C 92 % 1020,7 hPa 0,0 mm 0,0 km/h (0 Bft) O 90 0 min 0 UV-I 26 W/m 1,6 km/h (1 Bft)
07.02.2010 08:50 0,4 C 92 % 1020,9 hPa 0,0 mm 0,0 km/h (0 Bft) N 0 0 min 0 UV-I 37 W/m 0,0 km/h (0 Bft)
07.02.2010 09:00 0,4 C 92 % 1021,0 hPa 0,0 mm 0,0 km/h (0 Bft) O 90 0 min 0 UV-I 65 W/m 4,8 km/h (1 Bft)
07.02.2010 09:10 0,5 C 92 % 1021,2 hPa 0,0 mm 1,6 km/h (1 Bft) O 90 0 min 0 UV-I 83 W/m 4,8 km/h (1 Bft)
07.02.2010 09:20 0,6 C 93 % 1021,3 hPa 0,0 mm 1,6 km/h (1 Bft) N 360 0 min 0 UV-I 83 W/m 6,4 km/h (2 Bft)
07.02.2010 09:30 0,7 C 93 % 1021,4 hPa 0,0 mm 0,0 km/h (0 Bft) N 360 0 min 0 UV-I 47 W/m 4,8 km/h (1 Bft)
07.02.2010 09:40 0,7 C 92 % 1021,3 hPa 0,0 mm 0,0 km/h (0 Bft) N 360 0 min 0 UV-I 70 W/m 4,8 km/h (1 Bft)
07.02.2010 09:50 0,8 C 92 % 1021,4 hPa 0,0 mm 0,0 km/h (0 Bft) O-NO 67 0 min 0 UV-I 97 W/m 4,8 km/h (1 Bft)
07.02.2010 10:00 0,9 C 93 % 1021,4 hPa 0,0 mm 1,6 km/h (1 Bft) O-NO 67 0 min 0 UV-I 139 W/m 4,8 km/h (1 Bft)
07.02.2010 10:10 1,0 C 93 % 1021,5 hPa 0,0 mm 1,6 km/h (1 Bft) O-NO 67 0 min 0 UV-I 121 W/m 4,8 km/h (1 Bft)
07.02.2010 10:20 1,2 C 93 % 1021,5 hPa 0,0 mm 1,6 km/h (1 Bft) O-NO 67 0 min 0 UV-I 79 W/m 8,0 km/h (2 Bft)
07.02.2010 10:30 1,3 C 93 % 1021,5 hPa 0,0 mm 1,6 km/h (1 Bft) O 90 0 min 0 UV-I 77 W/m 6,4 km/h (2 Bft)
07.02.2010 10:40 1,3 C 93 % 1021,6 hPa 0,0 mm 3,2 km/h (1 Bft) O 90 0 min 0 UV-I 81 W/m 6,4 km/h (2 Bft)
07.02.2010 10:50 1,4 C 93 % 1021,6 hPa 0,0 mm 3,2 km/h (1 Bft) O 90 0 min 0 UV-I 83 W/m 8,0 km/h (2 Bft)
07.02.2010 11:00 1,5 C 93 % 1021,7 hPa 0,0 mm 3,2 km/h (1 Bft) O-NO 67 0 min 0 UV-I 91 W/m 9,7 km/h (2 Bft)
07.02.2010 11:10 1,5 C 93 % 1021,8 hPa 0,0 mm 3,2 km/h (1 Bft) O 90 0 min 0 UV-I 90 W/m 9,7 km/h (2 Bft)
07.02.2010 11:20 1,4 C 92 % 1021,7 hPa 0,0 mm 4,8 km/h (1 Bft) O 90 0 min 1 UV-I 98 W/m 9,7 km/h (2 Bft)
07.02.2010 11:30 1,4 C 92 % 1021,7 hPa 0,0 mm 4,8 km/h (1 Bft) O 90 0 min 1 UV-I 118 W/m 11,3 km/h (2 Bft)
07.02.2010 11:40 1,4 C 92 % 1021,7 hPa 0,0 mm 3,2 km/h (1 Bft) O 90 0 min 1 UV-I 123 W/m 8,0 km/h (2 Bft)
07.02.2010 11:50 1,4 C 92 % 1021,5 hPa 0,0 mm 3,2 km/h (1 Bft) O 90 0 min 1 UV-I 134 W/m 6,4 km/h (2 Bft)
07.02.2010 12:00 1,5 C 92 % 1021,5 hPa 0,0 mm 3,2 km/h (1 Bft) O-NO 67 0 min 1 UV-I 148 W/m 8,0 km/h (2 Bft)
07.02.2010 12:10 1,6 C 92 % 1021,4 hPa 0,0 mm 1,6 km/h (1 Bft) O-NO 67 0 min 1 UV-I 135 W/m 6,4 km/h (2 Bft)
07.02.2010 12:20 1,7 C 92 % 1021,4 hPa 0,0 mm 3,2 km/h (1 Bft) O-NO 67 0 min 1 UV-I 130 W/m 8,0 km/h (2 Bft)
07.02.2010 12:30 1,8 C 92 % 1021,4 hPa 0,0 mm 1,6 km/h (1 Bft) O 90 0 min 1 UV-I 118 W/m 8,0 km/h (2 Bft)
07.02.2010 12:40 1,8 C 92 % 1021,4 hPa 0,0 mm 3,2 km/h (1 Bft) O 90 0 min 1 UV-I 121 W/m 9,7 km/h (2 Bft)
07.02.2010 12:50 1,9 C 92 % 1021,3 hPa 0,0 mm 3,2 km/h (1 Bft) O 90 0 min 1 UV-I 104 W/m 8,0 km/h (2 Bft)
07.02.2010 13:00 1,9 C 91 % 1021,3 hPa 0,0 mm 3,2 km/h (1 Bft) O 90 0 min 1 UV-I 98 W/m 6,4 km/h (2 Bft)
07.02.2010 13:10 1,9 C 91 % 1021,2 hPa 0,0 mm 3,2 km/h (1 Bft) O 90 0 min 1 UV-I 95 W/m 9,7 km/h (2 Bft)
07.02.2010 13:20 1,8 C 91 % 1021,1 hPa 0,0 mm 3,2 km/h (1 Bft) O 90 0 min 1 UV-I 100 W/m 9,7 km/h (2 Bft)
07.02.2010 13:30 1,8 C 91 % 1021,1 hPa 0,0 mm 3,2 km/h (1 Bft) O-NO 67 0 min 1 UV-I 102 W/m 8,0 km/h (2 Bft)
07.02.2010 13:40 1,7 C 90 % 1021,0 hPa 0,0 mm 3,2 km/h (1 Bft) O-NO 67 0 min 0 UV-I 91 W/m 6,4 km/h (2 Bft)
07.02.2010 13:50 1,7 C 90 % 1020,9 hPa 0,0 mm 3,2 km/h (1 Bft) O-NO 67 0 min 1 UV-I 97 W/m 8,0 km/h (2 Bft)
07.02.2010 14:00 1,7 C 90 % 1020,9 hPa 0,0 mm 3,2 km/h (1 Bft) O 90 0 min 0 UV-I 84 W/m 6,4 km/h (2 Bft)
07.02.2010 14:10 1,8 C 90 % 1020,7 hPa 0,0 mm 3,2 km/h (1 Bft) O 90 0 min 0 UV-I 86 W/m 8,0 km/h (2 Bft)
07.02.2010 14:20 1,7 C 90 % 1020,7 hPa 0,0 mm 3,2 km/h (1 Bft) O 90 0 min 0 UV-I 98 W/m 8,0 km/h (2 Bft)
07.02.2010 14:30 1,7 C 89 % 1020,6 hPa 0,0 mm 3,2 km/h (1 Bft) O 90 0 min 0 UV-I 91 W/m 8,0 km/h (2 Bft)
07.02.2010 14:40 1,7 C 89 % 1020,6 hPa 0,0 mm 3,2 km/h (1 Bft) O 90 0 min 0 UV-I 91 W/m 8,0 km/h (2 Bft)
07.02.2010 14:50 1,7 C 88 % 1020,4 hPa 0,0 mm 1,6 km/h (1 Bft) O-NO 67 0 min 0 UV-I 84 W/m 4,8 km/h (1 Bft)
07.02.2010 15:00 1,7 C 88 % 1020,4 hPa 0,0 mm 3,2 km/h (1 Bft) O 90 0 min 0 UV-I 79 W/m 9,7 km/h (2 Bft)
07.02.2010 15:10 1,6 C 88 % 1020,3 hPa 0,0 mm 1,6 km/h (1 Bft) O 90 0 min 0 UV-I 79 W/m 8,0 km/h (2 Bft)
07.02.2010 15:20 1,6 C 88 % 1019,4 hPa 0,0 mm 3,2 km/h (1 Bft) O 90 0 min 0 UV-I 69 W/m 8,0 km/h (2 Bft)
07.02.2010 15:30 1,6 C 87 % 1020,2 hPa 0,0 mm 3,2 km/h (1 Bft) O 90 0 min 0 UV-I 72 W/m 6,4 km/h (2 Bft)
07.02.2010 15:40 1,6 C 87 % 1020,1 hPa 0,0 mm 3,2 km/h (1 Bft) O 90 0 min 0 UV-I 56 W/m 8,0 km/h (2 Bft)
07.02.2010 15:50 1,6 C 87 % 1020,1 hPa 0,0 mm 3,2 km/h (1 Bft) O 90 0 min 0 UV-I 58 W/m 11,3 km/h (2 Bft)
07.02.2010 16:00 1,5 C 87 % 1020,0 hPa 0,0 mm 1,6 km/h (1 Bft) O-NO 67 0 min 0 UV-I 53 W/m 4,8 km/h (1 Bft)
07.02.2010 16:10 1,4 C 86 % 1020,0 hPa 0,0 mm 1,6 km/h (1 Bft) O 90 0 min 0 UV-I 37 W/m 4,8 km/h (1 Bft)
07.02.2010 16:20 1,4 C 86 % 1018,6 hPa 0,0 mm 1,6 km/h (1 Bft) O 90 0 min 0 UV-I 33 W/m 6,4 km/h (2 Bft)
07.02.2010 16:30 1,3 C 86 % 1019,9 hPa 0,0 mm 1,6 km/h (1 Bft) O 90 0 min 0 UV-I 26 W/m 6,4 km/h (2 Bft)
07.02.2010 16:40 1,3 C 86 % 1019,8 hPa 0,0 mm 1,6 km/h (1 Bft) O 90 0 min 0 UV-I 23 W/m 4,8 km/h (1 Bft)
07.02.2010 16:50 1,3 C 85 % 1019,3 hPa 0,0 mm 1,6 km/h (1 Bft) O-SO 112 0 min 0 UV-I 19 W/m 6,4 km/h (2 Bft)
07.02.2010 17:00 1,3 C 85 % 1019,9 hPa 0,0 mm 3,2 km/h (1 Bft) O 90 0 min 0 UV-I 9 W/m 6,4 km/h (2 Bft)
07.02.2010 17:10 1,2 C 85 % 1019,9 hPa 0,0 mm 1,6 km/h (1 Bft) NO 45 0 min 0 UV-I 5 W/m 6,4 km/h (2 Bft)
07.02.2010 17:20 1,1 C 85 % 1020,0 hPa 0,0 mm 1,6 km/h (1 Bft) NO 45 0 min 0 UV-I 0 W/m 8,0 km/h (2 Bft)
07.02.2010 17:30 1,0 C 85 % 1020,1 hPa 0,0 mm 1,6 km/h (1 Bft) NO 45 0 min 0 UV-I 0 W/m 6,4 km/h (2 Bft)
07.02.2010 17:40 0,9 C 84 % 1020,0 hPa 0,0 mm 1,6 km/h (1 Bft) O-NO 67 0 min 0 UV-I 0 W/m 6,4 km/h (2 Bft)
07.02.2010 17:50 0,8 C 84 % 1020,0 hPa 0,0 mm 0,0 km/h (0 Bft) O-NO 67 0 min 0 UV-I 0 W/m 4,8 km/h (1 Bft)
07.02.2010 18:00 0,7 C 84 % 1020,0 hPa 0,0 mm 1,6 km/h (1 Bft) O-NO 67 0 min 0 UV-I 0 W/m 4,8 km/h (1 Bft)
07.02.2010 18:10 0,7 C 84 % 1020,0 hPa 0,0 mm 3,2 km/h (1 Bft) O-NO 67 0 min 0 UV-I 0 W/m 6,4 km/h (2 Bft)
07.02.2010 18:20 0,5 C 84 % 1020,0 hPa 0,0 mm 1,6 km/h (1 Bft) NO 45 0 min 0 UV-I 0 W/m 6,4 km/h (2 Bft)
07.02.2010 18:30 0,4 C 84 % 1020,0 hPa 0,0 mm 1,6 km/h (1 Bft) O-NO 67 0 min 0 UV-I 0 W/m 6,4 km/h (2 Bft)
07.02.2010 18:40 0,3 C 84 % 1019,9 hPa 0,0 mm 1,6 km/h (1 Bft) O 90 0 min 0 UV-I 0 W/m 4,8 km/h (1 Bft)
07.02.2010 18:50 0,2 C 84 % 1018,1 hPa 0,0 mm 1,6 km/h (1 Bft) NO 45 0 min 0 UV-I 0 W/m 4,8 km/h (1 Bft)
07.02.2010 19:00 0,1 C 84 % 1034,4 hPa 0,0 mm 1,6 km/h (1 Bft) O-NO 67 0 min 0 UV-I 0 W/m 4,8 km/h (1 Bft)
07.02.2010 19:10 -0,1 C 84 % 1018,4 hPa 0,0 mm 1,6 km/h (1 Bft) O-NO 67 0 min 0 UV-I 0 W/m 4,8 km/h (1 Bft)
07.02.2010 19:20 -0,2 C 84 % 1019,7 hPa 0,0 mm 1,6 km/h (1 Bft) O-NO 67 0 min 0 UV-I 0 W/m 6,4 km/h (2 Bft)
07.02.2010 19:30 -0,3 C 83 % 1019,7 hPa 0,0 mm 1,6 km/h (1 Bft) O-NO 67 0 min 0 UV-I 0 W/m 6,4 km/h (2 Bft)
07.02.2010 19:40 -0,4 C 84 % 1019,7 hPa 0,0 mm 1,6 km/h (1 Bft) O 90 0 min 0 UV-I 0 W/m 4,8 km/h (1 Bft)
07.02.2010 19:50 -0,6 C 84 % 1019,7 hPa 0,0 mm 1,6 km/h (1 Bft) NO 45 0 min 0 UV-I 0 W/m 4,8 km/h (1 Bft)
07.02.2010 20:00 -0,7 C 84 % 1019,6 hPa 0,0 mm 0,0 km/h (0 Bft) O-NO 67 0 min 0 UV-I 0 W/m 4,8 km/h (1 Bft)
07.02.2010 20:10 -0,9 C 84 % 1019,6 hPa 0,0 mm 0,0 km/h (0 Bft) O-NO 67 0 min 0 UV-I 0 W/m 3,2 km/h (1 Bft)
07.02.2010 20:20 -1,0 C 84 % 1019,5 hPa 0,0 mm 0,0 km/h (0 Bft) O-NO 67 0 min 0 UV-I 0 W/m 4,8 km/h (1 Bft)
07.02.2010 20:30 -1,2 C 84 % 1019,3 hPa 0,0 mm 1,6 km/h (1 Bft) O-NO 67 0 min 0 UV-I 0 W/m 4,8 km/h (1 Bft)
07.02.2010 20:40 -1,3 C 84 % 1017,4 hPa 0,0 mm 1,6 km/h (1 Bft) O-NO 67 0 min 0 UV-I 0 W/m 3,2 km/h (1 Bft)
07.02.2010 20:50 -1,4 C 84 % 1019,1 hPa 0,0 mm 0,0 km/h (0 Bft) O-NO 67 0 min 0 UV-I 0 W/m 3,2 km/h (1 Bft)
07.02.2010 21:00 -1,6 C 85 % 1018,2 hPa 0,0 mm 0,0 km/h (0 Bft) O-NO 67 0 min 0 UV-I 0 W/m 3,2 km/h (1 Bft)
07.02.2010 21:10 -1,6 C 85 % 1018,2 hPa 0,0 mm 0,0 km/h (0 Bft) O-NO 67 0 min 0 UV-I 0 W/m 3,2 km/h (1 Bft)
07.02.2010 21:20 -1,6 C 85 % 1018,2 hPa 0,0 mm 1,6 km/h (1 Bft) O 90 0 min 0 UV-I 0 W/m 9,7 km/h (2 Bft)
07.02.2010 21:30 -1,6 C 86 % 1016,3 hPa 0,0 mm 3,2 km/h (1 Bft) O-SO 112 0 min 0 UV-I 0 W/m 9,7 km/h (2 Bft)
07.02.2010 21:40 -1,6 C 86 % 1018,9 hPa 0,0 mm 3,2 km/h (1 Bft) O-SO 112 0 min 0 UV-I 0 W/m 8,0 km/h (2 Bft)
07.02.2010 21:50 -1,6 C 86 % 1018,9 hPa 0,0 mm 3,2 km/h (1 Bft) O 90 0 min 0 UV-I 0 W/m 9,7 km/h (2 Bft)
07.02.2010 22:00 -1,6 C 85 % 1018,8 hPa 0,0 mm 3,2 km/h (1 Bft) O-NO 67 0 min 0 UV-I 0 W/m 9,7 km/h (2 Bft)
07.02.2010 22:10 -1,6 C 85 % 1017,0 hPa 0,0 mm 3,2 km/h (1 Bft) O-NO 67 0 min 0 UV-I 0 W/m 9,7 km/h (2 Bft)
07.02.2010 22:20 -1,6 C 85 % 1018,4 hPa 0,0 mm 3,2 km/h (1 Bft) O 90 0 min 0 UV-I 0 W/m 9,7 km/h (2 Bft)
07.02.2010 22:30 -1,7 C 85 % 1018,9 hPa 0,0 mm 3,2 km/h (1 Bft) O 90 0 min 0 UV-I 0 W/m 8,0 km/h (2 Bft)
07.02.2010 22:40 -1,7 C 85 % 1016,7 hPa 0,0 mm 4,8 km/h (1 Bft) O 90 0 min 0 UV-I 0 W/m 11,3 km/h (2 Bft)
07.02.2010 22:50 -1,8 C 84 % 1018,8 hPa 0,0 mm 4,8 km/h (1 Bft) O 90 0 min 0 UV-I 0 W/m 14,5 km/h (3 Bft)
07.02.2010 23:00 -1,9 C 84 % 1013,8 hPa 0,0 mm 4,8 km/h (1 Bft) O 90 0 min 0 UV-I 0 W/m 14,5 km/h (3 Bft)
07.02.2010 23:10 -1,9 C 84 % 1018,5 hPa 0,0 mm 1,6 km/h (1 Bft) O 90 0 min 0 UV-I 0 W/m 8,0 km/h (2 Bft)
07.02.2010 23:20 -2,0 C 84 % 1017,1 hPa 0,0 mm 3,2 km/h (1 Bft) O 90 0 min 0 UV-I 0 W/m 8,0 km/h (2 Bft)
07.02.2010 23:30 -2,0 C 84 % 1018,3 hPa 0,0 mm 1,6 km/h (1 Bft) O 90 0 min 0 UV-I 0 W/m 6,4 km/h (2 Bft)
07.02.2010 23:40 -2,1 C 84 % 1018,0 hPa 0,0 mm 3,2 km/h (1 Bft) O 90 0 min 0 UV-I 0 W/m 8,0 km/h (2 Bft)
07.02.2010 23:50 -2,1 C 84 % 1018,0 hPa 0,0 mm 4,8 km/h (1 Bft) O 90 0 min 0 UV-I 0 W/m 9,7 km/h (2 Bft)
_ Min-Zeit 23:30 19:30 23:00 - 00:00 - - - - - 04:40
Minimum _ -2,1 C 83 % 1013,8 hPa - 0,0 km/h (0 Bft) - - - - - 0,0 km/h (0 Bft)
_ Max-Zeit 00:20 02:00 19:00 00:00 11:20 - - 00:00 11:40 12:00 22:50
Maximum _ 1,9 C 93 % 1034,4 hPa 0,0 mm 4,8 km/h
O (1 Bft)
- - 0 min 1 UV-I 148 W/m 14,5 km/h
O (3 Bft)
Durchschnitt _ 0,7 C 89 % 1019,9 hPa #0,0 mm 1,7 km/h (1 Bft) O - #0 min. 1 UV-I 78 W/m 5,6 km/h (1 Bft)